Regional Weather Roundup
Issued by NWS

Home | Current Version | Previous Version | Text Only | Print | Product List | Glossary Off
Versions: 1 2 3 4 5 6 7 8 9 10 11 12 13 14 15 16 17 18 19 20 21 22 23 24 25 26 27 28 29 30 31 32 33 34 35 36 37 38 39 40 41 42 43 44 45 46 47 48 49 50

000
ASUS45 KABQ 270310
RWRNM
WEATHER ROUNDUP FOR NEW MEXICO
NATIONAL WEATHER SERVICE ALBUQUERQUE NM
900 PM MDT TUE AUG 26 2014

NOTE: "FAIR" MEANS FEW OR NO CLOUDS BELOW 12,000 FEET AGL WITH NO
       SIGNIFICANT WEATHER OR OBSTRUCTIONS TO VISION.

      THIS PRODUCT IS RELEASED AS TWO VERSIONS.  ONE VERSION NEAR
      THE TOP OF THE HOUR CONTAINING PRELIMINARY DATA FROM ALBUQUERQUE
      AND OTHER STATIONS.  A FINAL VERSION WITH ADDITIONAL DATA IS
      ISSUED ABOUT 10 MINUTES AFTER THE HOUR.

NMZ501-503-504-510>518-270400-
NORTHWEST PLATEAU/NORTHCENTRAL MOUNTAINS

CITY           SKY/WX    TMP DP  RH WIND       PRES   REMARKS
FARMINGTON     RAIN      57  53  86 W17G24    30.28R
LOS ALAMOS     CLOUDY    56  56 100 N3        30.34R
SANTA FE       CLOUDY    59  56  89 N8        30.29R
TAOS           MOCLDY    55  52  88 N6        30.34S
ANGEL FIRE     CLOUDY    53  50  89 CALM      30.42F

$$
NMZ402-403-502-505>509-270400-
WESTCENTRAL MOUNTAINS/SOUTHWEST MOUNTAINS

CITY           SKY/WX    TMP DP  RH WIND       PRES   REMARKS
GALLUP         CLOUDY    58  51  78 N14       30.32S
SILVER CITY    CLOUDY    72  59  64 NW12      30.24R

$$
NMZ407-409-411-412-270400-
SOUTHERN DESERTS

CITY           SKY/WX    TMP DP  RH WIND       PRES   REMARKS
LORDSBURG      FAIR      70  61  73 CALM      30.15R
DEMING         CLOUDY    76  60  57 SW6       30.14R
LAS CRUCES     CLOUDY    76  59  55 NE10G21   30.17R
HOLLOMAN AFB   CLOUDY    72  64  78 SE8       30.15R
ALAMOGORDO     LGT RAIN  68  63  83 E10       30.17R
T OR C         CLOUDY    76  55  48 NW6       30.17R

$$
NMZ519>523-270400-
CENTRAL VALLEYS/CENTRAL HIGHLANDS

CITY           SKY/WX    TMP DP  RH WIND       PRES   REMARKS
ALBUQUERQUE    MOCLDY    69  56  62 N5        30.23R
DOUBLE EAGLE   CLOUDY    63  55  77 N9        30.26R
MORIARTY ARPT  FAIR      63  57  82 CALM      30.31R
CLINES CORNERS CLOUDY    59  55  87 S5        30.33R
BELEN          CLOUDY    67  58  71 CALM      30.21R
SOCORRO        TSTM      66  62  85 CALM      30.21R

$$
NMZ524>526-539-540-270400-
SOUTHCENTRAL MOUNTAINS

CITY           SKY/WX    TMP DP  RH WIND       PRES   REMARKS
RUIDOSO        MOCLDY    61  55  82 SE3       30.38R

$$
NMZ527>531-270400-
NORTHEAST HIGHLANDS/NORTHEAST PLAINS

CITY           SKY/WX    TMP DP  RH WIND       PRES   REMARKS
LAS VEGAS      CLOUDY    59  55  87 S7        30.33R
RATON          RAIN      61  58  90 S12G20    30.30R FOG
CLAYTON        LGT RAIN  63  61  93 N5        30.25R

$$
NMZ532>537-270400-
EASTCENTRAL PLAINS

CITY           SKY/WX    TMP DP  RH WIND       PRES   REMARKS
TUCUMCARI      LGT RAIN  69  62  78 W9        30.18S
CANNON AFB     LGT RAIN  69  65  86 NW12      30.20R
CLOVIS AIRPORT   N/A     72  59  64 NW14      30.22R

$$
NMZ028-029-538-270400-
SOUTHEAST PLAINS

CITY           SKY/WX    TMP DP  RH WIND       PRES   REMARKS
ROSWELL        CLOUDY    73  63  70 SW8       30.13R
CARLSBAD       CLOUDY    75  63  66 W12       30.08R


$$



USA.gov is the U.S. government's official web portal to all federal, state and local government web resources and services.